Weather History for OAHR - November, 2012

Change the Weather History Date:

Monday, November 26, 2012

  Actual Average Record
Temperature  
Mean Temperature 48 °F -  
Max Temperature 60 °F 55 °F - ()
Min Temperature 37 °F 30 °F - ()
Degree Days  
Heating Degree Days 16    
Moisture  
Dew Point 38 °F    
Average Humidity 70    
Maximum Humidity 93    
Minimum Humidity 42    
Precipitation  
Precipitation 0.00 in 0.04 in - ()
Sea Level Pressure  
Sea Level Pressure 30.16 in    
Wind  
Wind Speed 2 mph ()    
Max Wind Speed 6 mph    
Max Gust Speed -    
Visibility 5.6 miles    
Events      
T = Trace of Precipitation, MM = Missing Value Source: Averaged Metar Reports

Daily Weather History Graph

Daily Weather History Graph

Search for Another Location

Airport or City:

Trip Planner

Search our weather history database for the weather conditions in past years. The results will help you decide how hot, cold, wet, or windy it might be!

Date:

Astronomy

Nov. 26, 2012 Rise Set
Actual Time 7:04 AM AFT 5:12 PM AFT
Civil Twilight 6:37 AM AFT 5:39 PM AFT
Nautical Twilight 6:06 AM AFT 6:10 PM AFT
Astronomical Twilight 5:36 AM AFT 6:40 PM AFT
Moon 3:46 PM AFT (11/26) 4:54 AM AFT (11/26)
Length of Visible Light 11h 02m
Length of Day
10h 07m
Waxing Gibbous, 95% of the Moon is Illuminated
Nov 26
Waxing Gibbous
Nov 28
Full
Dec 6
Last Quarter
Dec 13
New
Dec 20
First Quarter

Hourly Weather History & Observations

Time (AFT) Temp. Windchill Dew Point Humidity Pressure Visibility Wind Dir Wind Speed Gust Speed Precip Events Conditions
12:24 AM 42.8 °F - 39.2 °F 87% 30.18 in 6.2 mi Calm Calm - N/A   Mostly Cloudy
1:25 AM 42.8 °F - 39.2 °F 87% 30.18 in 5.6 mi South 2.3 mph - N/A   Partly Cloudy
2:24 AM 41.0 °F - 37.4 °F 87% 30.18 in - Calm Calm - N/A   Clear
3:24 AM 41.0 °F - 37.4 °F 87% 30.18 in 5.6 mi South 2.3 mph - N/A   Unknown
4:24 AM 39.2 °F - 37.4 °F 93% 30.18 in 5.6 mi Calm Calm - N/A   Unknown
5:24 AM 39.2 °F 35.0 °F 35.6 °F 87% 30.18 in - South 5.8 mph - N/A   Clear
6:24 AM 37.4 °F - 33.8 °F 87% 30.18 in - South 1.2 mph - N/A   Clear
7:24 AM 39.2 °F - 35.6 °F 87% 30.21 in - WNW 2.3 mph - N/A   Clear
7:53 AM 39.2 °F 35.9 °F 35.6 °F 87% 30.21 in 1.9 mi WSW 4.6 mph - N/A   Mist
8:25 AM 41.0 °F 39.0 °F 37.4 °F 87% 30.21 in 3.1 mi WSW 3.5 mph - N/A   Partly Cloudy
9:24 AM 46.4 °F - 39.2 °F 76% 30.24 in 4.3 mi WSW 2.3 mph - N/A   Unknown
10:24 AM 50.0 °F - 39.2 °F 66% 30.24 in 5.6 mi Calm Calm - N/A   Unknown
11:25 AM 55.4 °F - 41.0 °F 58% 30.21 in 5.0 mi WSW 2.3 mph - N/A   Partly Cloudy
12:25 PM 57.2 °F - 41.0 °F 55% 30.18 in 6.2 mi SSE 1.2 mph - N/A   Partly Cloudy
1:25 PM 59.0 °F - 39.2 °F 48% 30.15 in 6.2 mi Variable 2.3 mph - N/A   Partly Cloudy
2:25 PM 60.8 °F - 37.4 °F 42% 30.12 in 6.2 mi Variable 2.3 mph - N/A   Partly Cloudy
3:25 PM 60.8 °F - 37.4 °F 42% 30.12 in 6.2 mi Variable 3.5 mph - N/A   Partly Cloudy
4:25 PM 59.0 °F - 37.4 °F 45% 30.12 in 6.2 mi Variable 3.5 mph - N/A   Scattered Clouds
5:25 PM 57.2 °F - 37.4 °F 48% 30.12 in 6.2 mi North 1.2 mph - N/A   Scattered Clouds
6:25 PM 55.4 °F - 37.4 °F 51% 30.12 in 6.2 mi East 2.3 mph - N/A   Scattered Clouds
7:25 PM 53.6 °F - 42.8 °F 67% 30.12 in - South 3.5 mph - N/A   Scattered Clouds
8:25 PM 51.8 °F - 41.0 °F 67% 30.12 in 6.2 mi South 4.6 mph - N/A   Partly Cloudy
9:24 PM 51.8 °F - 41.0 °F 67% 30.12 in 6.2 mi South 4.6 mph - N/A   Partly Cloudy
10:24 PM 51.8 °F - 37.4 °F 58% 30.09 in 6.2 mi Calm Calm - N/A   Mostly Cloudy
11:25 PM 46.4 °F - 41.0 °F 81% 30.09 in 6.2 mi Calm Calm - N/A   Unknown